SDM601 UWGG-UUWW

Flight info

Callsign SDM601
Flight time 0h 58m
Altitude 36000
Route LARNO2U LARNO T291 URIDU L158 DIMGI DIMGI3A
Aircraft A320/M-SDE3FGHIRWY/LB1

Departure

Time 2026-04-27 19:50
Airport Nizhny Novgorod / Strigino International Airport (UWGG)

Arrival

Time 2026-04-27 20:49
Airport Vnukovo International Airport (UUWW)
Time Latitude Longitude Altitude Speed Heading
2026-04-27 19:17 56.21857 43.78855 266 ft 0 kts 102°
2026-04-27 19:36 56.21858 43.78848 266 ft 2 kts 101°
2026-04-27 19:37 56.21860 43.78819 266 ft 2 kts 99°
2026-04-27 19:37 56.21862 43.78790 266 ft 2 kts 90°
2026-04-27 19:37 56.21861 43.78760 266 ft 2 kts 76°
2026-04-27 19:37 56.21856 43.78732 266 ft 2 kts 54°
2026-04-27 19:38 56.21845 43.78710 266 ft 2 kts 28°
2026-04-27 19:38 56.21833 43.78701 266 ft 1 kts
2026-04-27 19:38 56.21831 43.78701 266 ft 0 kts
2026-04-27 19:39 56.21832 43.78701 266 ft 0 kts
2026-04-27 19:43 56.21835 43.78703 266 ft 5 kts 14°
2026-04-27 19:43 56.21883 43.78710 266 ft 5 kts 350°
2026-04-27 19:43 56.21915 43.78683 266 ft 8 kts 329°
2026-04-27 19:44 56.21977 43.78647 266 ft 7 kts
2026-04-27 19:44 56.22010 43.78660 266 ft 3 kts 12°
2026-04-27 19:44 56.22048 43.78674 266 ft 12 kts 11°
2026-04-27 19:44 56.22140 43.78708 266 ft 11 kts 11°
2026-04-27 19:45 56.22199 43.78729 266 ft 6 kts 10°
2026-04-27 19:45 56.22289 43.78760 266 ft 29 kts 12°
2026-04-27 19:45 56.22472 43.78850 266 ft 25 kts 18°
2026-04-27 19:45 56.22638 43.78912 266 ft 24 kts 11°
2026-04-27 19:46 56.22791 43.78968 266 ft 21 kts 12°
2026-04-27 19:46 56.22942 43.79026 266 ft 21 kts 12°
2026-04-27 19:46 56.23063 43.79071 266 ft 15 kts 12°
2026-04-27 19:46 56.23148 43.79101 266 ft 10 kts 12°
2026-04-27 19:47 56.23220 43.79128 266 ft 20 kts 12°
2026-04-27 19:47 56.23377 43.79187 266 ft 23 kts 10°
2026-04-27 19:47 56.23534 43.79234 266 ft 21 kts
2026-04-27 19:47 56.23679 43.79250 266 ft 21 kts
2026-04-27 19:48 56.23821 43.79262 266 ft 19 kts 358°
2026-04-27 19:48 56.23944 43.79266 266 ft 15 kts
2026-04-27 19:48 56.24038 43.79253 266 ft 12 kts 335°
2026-04-27 19:48 56.24064 43.79219 266 ft 0 kts 319°
2026-04-27 19:49 56.24069 43.79210 266 ft 6 kts 316°
2026-04-27 19:49 56.24102 43.79021 268 ft 19 kts 232°
2026-04-27 19:49 56.24049 43.78968 268 ft 2 kts 193°
2026-04-27 19:49 56.23889 43.78908 267 ft 60 kts 191°
2026-04-27 19:50 56.23237 43.78674 268 ft 126 kts 191°
2026-04-27 19:50 56.22603 43.78440 480 ft 140 kts 192°
2026-04-27 19:50 56.21629 43.78041 1131 ft 151 kts 192°
2026-04-27 19:50 56.20592 43.77556 2005 ft 150 kts 200°
2026-04-27 19:51 56.19591 43.76770 2601 ft 168 kts 206°
2026-04-27 19:51 56.18465 43.75785 3095 ft 192 kts 207°
2026-04-27 19:51 56.17198 43.74672 3713 ft 210 kts 208°
2026-04-27 19:51 56.15863 43.73513 4662 ft 216 kts 209°
2026-04-27 19:52 56.14482 43.72333 5589 ft 223 kts 208°
2026-04-27 19:52 56.13053 43.71127 6506 ft 229 kts 208°
2026-04-27 19:52 56.11594 43.69901 7439 ft 234 kts 208°
2026-04-27 19:52 56.10103 43.68650 8418 ft 239 kts 208°
2026-04-27 19:53 56.06998 43.66059 9857 ft 262 kts 208°
2026-04-27 19:53 56.05271 43.64611 10167 ft 286 kts 208°
2026-04-27 19:53 56.03421 43.63026 10623 ft 301 kts 211°
2026-04-27 19:54 56.01681 43.60898 11355 ft 305 kts 221°
2026-04-27 19:54 56.00194 43.58156 12147 ft 310 kts 229°
2026-04-27 19:54 55.98768 43.55226 12931 ft 315 kts 229°
2026-04-27 19:54 55.97323 43.52256 13627 ft 320 kts 229°
2026-04-27 19:55 55.95851 43.49234 14286 ft 325 kts 229°
2026-04-27 19:55 55.94359 43.46175 14949 ft 330 kts 229°
2026-04-27 19:55 55.92839 43.43068 15610 ft 335 kts 229°
2026-04-27 19:55 55.91296 43.39923 16273 ft 339 kts 229°
2026-04-27 19:56 55.89707 43.36691 16931 ft 344 kts 229°
2026-04-27 19:56 55.88121 43.33461 17572 ft 349 kts 229°
2026-04-27 19:56 55.86511 43.30181 18163 ft 353 kts 230°
2026-04-27 19:56 55.84881 43.26873 18761 ft 357 kts 230°
2026-04-27 19:57 55.83258 43.23579 19371 ft 360 kts 230°
2026-04-27 19:57 55.81733 43.20033 19993 ft 362 kts 239°
2026-04-27 19:57 55.80641 43.15986 20594 ft 365 kts 251°
2026-04-27 19:57 55.80059 43.11532 21197 ft 369 kts 262°
2026-04-27 19:58 55.80034 43.07017 21769 ft 373 kts 273°
2026-04-27 19:58 55.80317 43.02345 22350 ft 376 kts 274°
2026-04-27 19:58 55.80586 42.97782 22907 ft 378 kts 274°
2026-04-27 19:58 55.80852 42.93118 23321 ft 381 kts 274°
2026-04-27 19:59 55.81115 42.88399 23705 ft 385 kts 273°
2026-04-27 19:59 55.81377 42.83636 24073 ft 389 kts 273°
2026-04-27 19:59 55.81642 42.78819 24431 ft 393 kts 274°
2026-04-27 19:59 55.81909 42.73956 24769 ft 397 kts 273°
2026-04-27 20:00 55.82177 42.69044 25126 ft 401 kts 273°
2026-04-27 20:00 55.82445 42.64086 25484 ft 404 kts 273°
2026-04-27 20:00 55.82713 42.59095 25818 ft 408 kts 273°
2026-04-27 20:00 55.82987 42.54046 26162 ft 411 kts 274°
2026-04-27 20:01 55.83261 42.48971 26519 ft 413 kts 274°
2026-04-27 20:01 55.83532 42.43863 26857 ft 417 kts 274°
2026-04-27 20:01 55.83801 42.38709 27171 ft 420 kts 274°
2026-04-27 20:01 55.84072 42.33517 27498 ft 423 kts 274°
2026-04-27 20:02 55.84342 42.28281 27783 ft 426 kts 273°
2026-04-27 20:02 55.84610 42.23009 28064 ft 429 kts 273°
2026-04-27 20:02 55.84875 42.17706 28385 ft 431 kts 273°
2026-04-27 20:02 55.85142 42.12364 28631 ft 435 kts 273°
2026-04-27 20:03 55.85410 42.06981 28880 ft 438 kts 273°
2026-04-27 20:03 55.85676 42.01568 29136 ft 441 kts 273°
2026-04-27 20:03 55.85943 41.96118 29381 ft 443 kts 273°
2026-04-27 20:03 55.86205 41.90658 29636 ft 443 kts 273°
2026-04-27 20:04 55.86463 41.85179 29879 ft 444 kts 273°
2026-04-27 20:04 55.86708 41.79686 30104 ft 445 kts 271°
2026-04-27 20:04 55.86658 41.74189 30371 ft 444 kts 265°
2026-04-27 20:04 55.86496 41.68694 30658 ft 444 kts 265°
2026-04-27 20:05 55.86334 41.63206 30909 ft 444 kts 266°
2026-04-27 20:05 55.86169 41.57709 31171 ft 445 kts 266°
2026-04-27 20:05 55.86002 41.52216 31467 ft 444 kts 265°
2026-04-27 20:05 55.85834 41.46724 31778 ft 443 kts 265°
2026-04-27 20:06 55.85665 41.41242 32027 ft 444 kts 265°
2026-04-27 20:06 55.85491 41.35742 32282 ft 445 kts 265°
2026-04-27 20:06 55.85315 41.30237 32545 ft 446 kts 265°
2026-04-27 20:06 55.85135 41.24719 32830 ft 446 kts 265°
2026-04-27 20:07 55.84952 41.19227 33130 ft 446 kts 265°
2026-04-27 20:07 55.84766 41.13713 33350 ft 448 kts 265°
2026-04-27 20:07 55.84578 41.08161 33521 ft 449 kts 265°
2026-04-27 20:07 55.84386 41.02627 33758 ft 449 kts 265°
2026-04-27 20:08 55.84192 40.97085 34020 ft 448 kts 265°
2026-04-27 20:08 55.83997 40.91545 34214 ft 448 kts 265°
2026-04-27 20:08 55.83797 40.85995 34352 ft 450 kts 265°
2026-04-27 20:08 55.83597 40.80448 34598 ft 448 kts 265°
2026-04-27 20:09 55.83395 40.74866 34897 ft 445 kts 265°
2026-04-27 20:09 55.83190 40.69361 35060 ft 446 kts 265°
2026-04-27 20:09 55.82980 40.63850 35226 ft 447 kts 265°
2026-04-27 20:09 55.82762 40.58333 35289 ft 448 kts 265°
2026-04-27 20:10 55.82311 40.47319 35040 ft 447 kts 264°
2026-04-27 20:10 55.82082 40.41796 34829 ft 448 kts 264°
2026-04-27 20:10 55.81853 40.36198 34593 ft 448 kts 265°
2026-04-27 20:11 55.81625 40.30594 33959 ft 450 kts 265°
2026-04-27 20:11 55.81395 40.25014 33014 ft 453 kts 265°
2026-04-27 20:11 55.81161 40.19428 32017 ft 454 kts 265°
2026-04-27 20:11 55.80919 40.13824 30973 ft 455 kts 265°
2026-04-27 20:12 55.80671 40.08222 29967 ft 454 kts 265°
2026-04-27 20:12 55.80505 40.04525 29223 ft 453 kts 266°
2026-04-27 20:12 55.80175 39.97072 27546 ft 450 kts 266°
2026-04-27 20:12 55.79929 39.91607 27061 ft 434 kts 266°
2026-04-27 20:13 55.79690 39.86393 26914 ft 414 kts 266°
2026-04-27 20:13 55.79460 39.81406 26781 ft 397 kts 266°
2026-04-27 20:13 55.79211 39.76612 26544 ft 383 kts 265°
2026-04-27 20:13 55.78918 39.71962 26323 ft 375 kts 264°
2026-04-27 20:14 55.78600 39.67394 26291 ft 372 kts 264°
2026-04-27 20:14 55.78273 39.62843 26298 ft 371 kts 264°
2026-04-27 20:14 55.77948 39.58289 26299 ft 371 kts 264°
2026-04-27 20:14 55.77630 39.53730 26299 ft 374 kts 265°
2026-04-27 20:15 55.77310 39.49130 26302 ft 376 kts 265°
2026-04-27 20:15 55.76991 39.44521 26315 ft 376 kts 265°
2026-04-27 20:15 55.76674 39.39909 26309 ft 376 kts 265°
2026-04-27 20:15 55.76353 39.35239 26235 ft 376 kts 266°
2026-04-27 20:16 55.76035 39.30627 26146 ft 375 kts 266°
2026-04-27 20:16 55.75716 39.26041 26012 ft 373 kts 266°
2026-04-27 20:16 55.75397 39.21477 25928 ft 372 kts 266°
2026-04-27 20:16 55.75074 39.16925 25840 ft 371 kts 266°
2026-04-27 20:17 55.74748 39.12383 25756 ft 371 kts 266°
2026-04-27 20:17 55.74423 39.07855 25645 ft 370 kts 266°
2026-04-27 20:17 55.74097 39.03335 25542 ft 369 kts 266°
2026-04-27 20:17 55.73880 39.00348 25476 ft 368 kts 266°
2026-04-27 20:18 55.73439 38.94326 25335 ft 367 kts 266°
2026-04-27 20:18 55.73106 38.89840 25037 ft 367 kts 266°
2026-04-27 20:18 55.72765 38.85376 24653 ft 363 kts 266°
2026-04-27 20:18 55.72420 38.80965 24287 ft 360 kts 266°
2026-04-27 20:19 55.72074 38.76588 23915 ft 357 kts 266°
2026-04-27 20:19 55.71846 38.73710 23669 ft 355 kts 268°
2026-04-27 20:19 55.71504 38.69393 23307 ft 353 kts 268°
2026-04-27 20:19 55.71168 38.65049 22944 ft 350 kts 269°
2026-04-27 20:20 55.70848 38.60789 22542 ft 347 kts 269°
2026-04-27 20:20 55.70526 38.56501 22186 ft 344 kts 269°
2026-04-27 20:20 55.70209 38.52313 21807 ft 344 kts 269°
2026-04-27 20:20 55.69888 38.48102 21500 ft 344 kts 268°
2026-04-27 20:21 55.69565 38.43908 21151 ft 343 kts 268°
2026-04-27 20:21 55.69245 38.39734 20830 ft 341 kts 268°
2026-04-27 20:21 55.68930 38.35595 20489 ft 339 kts 268°
2026-04-27 20:21 55.68612 38.31465 20143 ft 337 kts 268°
2026-04-27 20:22 55.68295 38.27369 19803 ft 335 kts 268°
2026-04-27 20:22 55.67977 38.23292 19463 ft 333 kts 268°
2026-04-27 20:22 55.67659 38.19243 19256 ft 331 kts 268°
2026-04-27 20:22 55.67335 38.15207 19176 ft 331 kts 268°
2026-04-27 20:23 55.67009 38.11171 19074 ft 331 kts 268°
2026-04-27 20:23 55.66676 38.07083 18958 ft 330 kts 268°
2026-04-27 20:23 55.66347 38.03064 18850 ft 330 kts 268°
2026-04-27 20:23 55.66015 37.99046 18726 ft 329 kts 268°
2026-04-27 20:24 55.65684 37.95047 18622 ft 328 kts 268°
2026-04-27 20:24 55.65356 37.91116 18472 ft 316 kts 268°
2026-04-27 20:24 55.64928 37.87352 18293 ft 312 kts 259°
2026-04-27 20:24 55.64037 37.83835 18046 ft 316 kts 247°
2026-04-27 20:25 55.62939 37.80488 17733 ft 313 kts 247°
2026-04-27 20:25 55.61849 37.77166 17364 ft 311 kts 247°
2026-04-27 20:25 55.60763 37.73864 17022 ft 309 kts 247°
2026-04-27 20:25 55.59683 37.70588 16689 ft 308 kts 247°
2026-04-27 20:26 55.58604 37.67316 16359 ft 307 kts 247°
2026-04-27 20:26 55.57520 37.64026 16028 ft 305 kts 247°
2026-04-27 20:26 55.56347 37.60886 15695 ft 310 kts 236°
2026-04-27 20:26 55.54707 37.58344 15352 ft 319 kts 218°
2026-04-27 20:27 55.52687 37.56743 15116 ft 328 kts 200°
2026-04-27 20:27 55.50419 37.56079 14885 ft 331 kts 192°
2026-04-27 20:27 55.48097 37.55566 14759 ft 332 kts 192°
2026-04-27 20:27 55.45811 37.55063 14503 ft 330 kts 192°
2026-04-27 20:28 55.43536 37.54563 14251 ft 329 kts 192°
2026-04-27 20:28 55.41273 37.54064 13987 ft 326 kts 192°
2026-04-27 20:28 55.39033 37.53569 13738 ft 324 kts 192°
2026-04-27 20:28 55.37556 37.53241 13577 ft 322 kts 192°
2026-04-27 20:29 55.34570 37.52750 13240 ft 323 kts 183°
2026-04-27 20:29 55.32319 37.52942 12965 ft 323 kts 181°
2026-04-27 20:29 55.30110 37.53148 12689 ft 322 kts 181°
2026-04-27 20:29 55.27873 37.53353 12429 ft 321 kts 181°
2026-04-27 20:30 55.25649 37.53554 12158 ft 318 kts 181°
2026-04-27 20:30 55.23454 37.53753 11889 ft 313 kts 182°
2026-04-27 20:30 55.21265 37.53919 11617 ft 307 kts 186°
2026-04-27 20:30 55.19158 37.53775 11354 ft 301 kts 188°
2026-04-27 20:31 55.17076 37.53634 11091 ft 297 kts 188°
2026-04-27 20:31 55.15025 37.53507 10847 ft 293 kts 188°
2026-04-27 20:31 55.13000 37.53385 10591 ft 290 kts 188°
2026-04-27 20:31 55.10983 37.53257 10332 ft 289 kts 189°
2026-04-27 20:32 55.08983 37.53100 10043 ft 283 kts 195°
2026-04-27 20:32 55.07174 37.52207 9916 ft 262 kts 217°
2026-04-27 20:32 55.05747 37.50429 9790 ft 245 kts 237°
2026-04-27 20:32 55.04786 37.48110 9665 ft 230 kts 254°
2026-04-27 20:33 55.04280 37.45543 9563 ft 221 kts 265°
2026-04-27 20:33 55.03961 37.43254 9492 ft 221 kts 265°
2026-04-27 20:33 55.03661 37.40652 9355 ft 225 kts 276°
2026-04-27 20:33 55.03997 37.38140 9166 ft 207 kts 302°
2026-04-27 20:34 55.04950 37.36374 8994 ft 200 kts 326°
2026-04-27 20:34 55.06280 37.35608 8860 ft 208 kts 350°
2026-04-27 20:34 55.07740 37.35662 8712 ft 211 kts 354°
2026-04-27 20:34 55.09210 37.35756 8529 ft 210 kts 354°
2026-04-27 20:35 55.10669 37.35846 8378 ft 209 kts 354°
2026-04-27 20:35 55.12120 37.35931 8209 ft 208 kts 354°
2026-04-27 20:35 55.13566 37.36012 7960 ft 206 kts 354°
2026-04-27 20:35 55.14995 37.36093 7772 ft 205 kts 354°
2026-04-27 20:36 55.16424 37.36175 7654 ft 206 kts 354°
2026-04-27 20:36 55.17834 37.36256 7472 ft 206 kts 354°
2026-04-27 20:36 55.19261 37.36338 7315 ft 205 kts 354°
2026-04-27 20:36 55.20682 37.36419 7147 ft 204 kts 354°
2026-04-27 20:37 55.22114 37.36504 6973 ft 203 kts 354°
2026-04-27 20:37 55.23518 37.36587 6847 ft 201 kts 354°
2026-04-27 20:37 55.24898 37.36668 6710 ft 200 kts 354°
2026-04-27 20:37 55.26288 37.36749 6589 ft 199 kts 355°
2026-04-27 20:38 55.27691 37.36830 6461 ft 199 kts 355°
2026-04-27 20:38 55.29068 37.36906 6329 ft 198 kts 354°
2026-04-27 20:38 55.30443 37.36981 6206 ft 197 kts 355°
2026-04-27 20:38 55.31808 37.37149 5929 ft 199 kts
2026-04-27 20:39 55.33137 37.37784 5819 ft 198 kts
2026-04-27 20:39 55.34473 37.38426 5748 ft 199 kts
2026-04-27 20:39 55.35810 37.39061 5694 ft 199 kts
2026-04-27 20:39 55.37141 37.39692 5650 ft 198 kts
2026-04-27 20:40 55.38465 37.40322 5600 ft 198 kts
2026-04-27 20:40 55.39736 37.40926 5550 ft 198 kts
2026-04-27 20:40 55.41084 37.41567 5239 ft 199 kts
2026-04-27 20:40 55.42491 37.42229 5420 ft 212 kts
2026-04-27 20:41 55.43874 37.42898 5254 ft 201 kts
2026-04-27 20:41 55.45204 37.43542 5083 ft 196 kts
2026-04-27 20:41 55.46519 37.44170 4985 ft 196 kts
2026-04-27 20:41 55.47830 37.44798 4849 ft 192 kts
2026-04-27 20:42 55.49081 37.45411 4718 ft 181 kts
2026-04-27 20:42 55.50275 37.45992 4583 ft 176 kts
2026-04-27 20:42 55.51447 37.46556 4458 ft 171 kts
2026-04-27 20:42 55.52569 37.47105 4323 ft 164 kts
2026-04-27 20:43 55.53645 37.47630 4189 ft 158 kts
2026-04-27 20:43 55.54695 37.48135 4082 ft 156 kts
2026-04-27 20:43 55.55769 37.48636 4013 ft 168 kts
2026-04-27 20:43 55.56928 37.49174 3991 ft 175 kts
2026-04-27 20:44 55.58107 37.49741 3991 ft 176 kts
2026-04-27 20:44 55.59278 37.50021 3993 ft 164 kts 344°
2026-04-27 20:44 55.60338 37.49497 3992 ft 157 kts 332°
2026-04-27 20:44 55.61350 37.48783 3994 ft 157 kts 332°
2026-04-27 20:45 55.62369 37.48072 3911 ft 158 kts 332°
2026-04-27 20:45 55.63295 37.47189 3752 ft 145 kts 308°
2026-04-27 20:45 55.63481 37.45497 3645 ft 154 kts 264°
2026-04-27 20:45 55.63008 37.43808 3524 ft 144 kts 264°
2026-04-27 20:46 55.62702 37.42260 3374 ft 125 kts 266°
2026-04-27 20:46 55.62417 37.40888 3073 ft 117 kts 265°
2026-04-27 20:46 55.62112 37.39423 2261 ft 133 kts 260°
2026-04-27 20:46 55.61771 37.37863 1704 ft 131 kts 257°
2026-04-27 20:47 55.61449 37.36413 1591 ft 122 kts 256°
2026-04-27 20:47 55.61142 37.35027 1448 ft 122 kts 255°
2026-04-27 20:47 55.60937 37.34107 1336 ft 121 kts 253°
2026-04-27 20:47 55.60529 37.32281 1125 ft 119 kts 252°
2026-04-27 20:48 55.60326 37.31351 1004 ft 120 kts 253°
2026-04-27 20:48 55.60005 37.29949 828 ft 118 kts 252°
2026-04-27 20:48 55.59716 37.28637 691 ft 118 kts 251°
2026-04-27 20:48 55.59466 37.27471 677 ft 83 kts 244°
2026-04-27 20:49 55.59285 37.26670 667 ft 60 kts 251°
2026-04-27 20:49 55.59143 37.26050 669 ft 49 kts 247°
2026-04-27 20:49 55.59026 37.25535 665 ft 42 kts 259°
2026-04-27 20:49 55.59045 37.25075 659 ft 26 kts 305°
2026-04-27 20:50 55.59069 37.25044 659 ft 0 kts 341°
2026-04-27 20:52 55.59113 37.25031 659 ft 16 kts
2026-04-27 20:53 55.59152 37.25078 659 ft 6 kts 66°
2026-04-27 20:53 55.59171 37.25178 660 ft 12 kts 70°
2026-04-27 20:53 55.59197 37.25296 662 ft 13 kts 69°
2026-04-27 20:53 55.59267 37.25619 669 ft 29 kts 68°
2026-04-27 20:54 55.59351 37.25990 669 ft 0 kts 68°
2026-04-27 20:54 55.59352 37.25995 669 ft 3 kts 68°
2026-04-27 20:55 55.59408 37.26249 669 ft 31 kts 68°
2026-04-27 20:55 55.59487 37.26592 667 ft 30 kts 68°
2026-04-27 20:55 55.59580 37.26905 669 ft 28 kts 50°
2026-04-27 20:55 55.59715 37.27150 669 ft 27 kts 47°
2026-04-27 20:56 55.59836 37.27379 676 ft 24 kts 47°
2026-04-27 20:56 55.59940 37.27578 680 ft 20 kts 54°
2026-04-27 20:56 55.60019 37.27738 680 ft 15 kts 34°
2026-04-27 20:56 55.60088 37.27841 680 ft 14 kts 46°
2026-04-27 20:57 55.60100 37.27961 680 ft 5 kts 123°
2026-04-27 20:57 55.60089 37.28007 680 ft 6 kts 107°
2026-04-27 20:57 55.60106 37.28107 678 ft 4 kts 33°
2026-04-27 20:57 55.60123 37.28121 680 ft 6 kts 25°
2026-04-27 20:58 55.60148 37.28150 680 ft 0 kts 36°